Time,TemperatureF,DewpointF,PressureIn,WindDirection,WindDirectionDegrees,WindSpeedMPH,WindSpeedGustMPH,Humidity,HourlyPrecipIn,Conditions,Clouds,dailyrainin,SoftwareType,DateUTC
2013-06-06 00:00:00,38.7,38.0,0.00,South,176,24.4,-999.0,100,0.00,,,-99.99,,2013-06-06 08:00:00,
2013-06-06 00:05:00,38.7,38.0,0.00,South,177,20.2,-999.0,100,0.00,,,-99.99,,2013-06-06 08:05:00,
2013-06-06 00:11:00,38.6,38.0,0.00,SSE,166,21.0,-999.0,100,0.00,,,-99.99,,2013-06-06 08:11:00,
2013-06-06 00:16:00,38.7,38.6,0.00,South,172,22.8,-999.0,99,0.00,,,-99.99,,2013-06-06 08:16:00,
2013-06-06 00:21:00,38.6,38.6,0.00,SSE,168,17.5,-999.0,99,0.00,,,-99.99,,2013-06-06 08:21:00,
2013-06-06 00:26:00,38.9,38.9,0.00,South,176,24.2,-999.0,99,0.00,,,-99.99,,2013-06-06 08:26:00,
2013-06-06 00:31:00,38.9,38.8,0.00,SSW,197,25.5,-999.0,99,0.00,,,-99.99,,2013-06-06 08:31:00,
2013-06-06 00:37:00,38.8,38.8,0.00,South,176,18.1,-999.0,99,0.00,,,-99.99,,2013-06-06 08:37:00,
2013-06-06 00:42:00,38.8,38.8,0.00,South,189,20.1,-999.0,99,0.00,,,-99.99,,2013-06-06 08:42:00,
2013-06-06 00:47:00,38.8,38.7,0.00,South,189,19.4,-999.0,99,0.00,,,-99.99,,2013-06-06 08:47:00,
2013-06-06 00:52:00,38.9,38.8,0.00,South,187,24.9,-999.0,99,0.00,,,-99.99,,2013-06-06 08:52:00,
2013-06-06 00:57:00,38.8,38.7,0.00,South,178,20.1,-999.0,99,0.00,,,-99.99,,2013-06-06 08:57:00,
2013-06-06 01:03:00,38.8,38.7,0.00,South,179,21.8,-999.0,99,0.00,,,-99.99,,2013-06-06 09:03:00,
2013-06-06 01:08:00,38.9,38.6,0.00,South,173,18.3,-999.0,98,0.00,,,-99.99,,2013-06-06 09:08:00,
2013-06-06 01:13:00,39.0,38.6,0.00,South,171,16.5,-999.0,98,0.00,,,-99.99,,2013-06-06 09:13:00,
2013-06-06 01:18:00,38.8,38.5,0.00,SSW,201,25.5,-999.0,98,0.00,,,-99.99,,2013-06-06 09:18:00,
2013-06-06 01:23:00,39.0,38.8,0.00,SSE,166,20.3,-999.0,99,0.00,,,-99.99,,2013-06-06 09:23:00,
2013-06-06 01:29:00,39.1,38.9,0.00,SSE,158,19.3,-999.0,99,0.00,,,-99.99,,2013-06-06 09:29:00,
2013-06-06 01:34:00,39.4,39.2,0.00,South,184,31.8,-999.0,99,0.00,,,-99.99,,2013-06-06 09:34:00,
2013-06-06 01:39:00,39.3,39.1,0.00,South,179,23.6,-999.0,99,0.00,,,-99.99,,2013-06-06 09:39:00,
2013-06-06 01:44:00,39.5,39.4,0.00,South,181,22.8,-999.0,99,0.00,,,-99.99,,2013-06-06 09:44:00,
2013-06-06 01:49:00,39.7,39.6,0.00,South,178,17.8,-999.0,99,0.00,,,-99.99,,2013-06-06 09:49:00,
2013-06-06 01:56:00,39.6,39.5,0.00,South,178,20.6,-999.0,99,0.00,,,-99.99,,2013-06-06 09:56:00,
2013-06-06 02:01:00,39.6,39.5,0.00,SSW,200,26.7,-999.0,99,0.00,,,-99.99,,2013-06-06 10:01:00,
2013-06-06 02:06:00,39.6,39.6,0.00,South,186,25.9,-999.0,99,0.00,,,-99.99,,2013-06-06 10:06:00,
2013-06-06 02:12:00,39.4,39.3,0.00,South,184,18.6,-999.0,99,0.01,,,-99.99,,2013-06-06 10:12:00,
2013-06-06 02:17:00,39.6,39.5,0.00,South,189,27.7,-999.0,99,0.01,,,-99.99,,2013-06-06 10:17:00,
2013-06-06 02:22:00,39.6,39.5,0.00,South,184,31.4,-999.0,99,0.01,,,-99.99,,2013-06-06 10:22:00,
2013-06-06 02:27:00,39.5,39.4,0.00,South,175,25.6,-999.0,99,0.02,,,-99.99,,2013-06-06 10:27:00,
2013-06-06 02:32:00,39.0,39.0,0.00,South,191,21.9,-999.0,99,0.03,,,-99.99,,2013-06-06 10:32:00,
2013-06-06 02:37:00,39.6,39.5,0.00,SSW,195,24.9,-999.0,99,0.04,,,-99.99,,2013-06-06 10:37:00,
2013-06-06 02:42:00,39.6,39.6,0.00,SSW,198,20.2,-999.0,99,0.05,,,-99.99,,2013-06-06 10:42:00,
2013-06-06 02:47:00,39.6,39.5,0.00,South,184,31.4,-999.0,99,0.06,,,-99.99,,2013-06-06 10:47:00,
2013-06-06 02:52:00,39.1,39.0,0.00,South,177,25.9,-999.0,99,0.06,,,-99.99,,2013-06-06 10:52:00,
2013-06-06 02:57:00,39.1,39.0,0.00,South,169,19.3,-999.0,99,0.06,,,-99.99,,2013-06-06 10:57:00,
2013-06-06 03:03:00,38.8,38.7,0.00,South,170,22.1,-999.0,99,0.00,,,-99.99,,2013-06-06 11:03:00,
2013-06-06 03:08:00,39.1,39.0,0.00,South,177,22.1,-999.0,99,0.01,,,-99.99,,2013-06-06 11:08:00,
2013-06-06 03:13:00,38.8,38.8,0.00,South,178,26.1,-999.0,99,0.01,,,-99.99,,2013-06-06 11:13:00,
2013-06-06 03:18:00,39.3,39.2,0.00,South,176,22.1,-999.0,99,0.01,,,-99.99,,2013-06-06 11:18:00,
2013-06-06 03:23:00,39.3,39.3,0.00,South,173,22.0,-999.0,99,0.01,,,-99.99,,2013-06-06 11:23:00,
2013-06-06 03:28:00,39.5,39.0,0.00,South,179,27.4,-999.0,100,0.01,,,-99.99,,2013-06-06 11:28:00,
2013-06-06 03:33:00,39.5,39.5,0.00,South,182,24.2,-999.0,99,0.01,,,-99.99,,2013-06-06 11:33:00,
2013-06-06 03:38:00,39.5,39.0,0.00,South,178,21.8,-999.0,100,0.01,,,-99.99,,2013-06-06 11:38:00,
2013-06-06 03:43:00,39.4,39.3,0.00,SSE,161,20.2,-999.0,99,0.01,,,-99.99,,2013-06-06 11:43:00,
2013-06-06 03:48:00,39.4,39.3,0.00,SSW,196,20.9,-999.0,99,0.01,,,-99.99,,2013-06-06 11:48:00,
2013-06-06 03:53:00,39.3,39.3,0.00,South,176,22.5,-999.0,99,0.01,,,-99.99,,2013-06-06 11:53:00,
2013-06-06 03:58:00,39.2,39.2,0.00,South,169,19.3,-999.0,99,0.01,,,-99.99,,2013-06-06 11:58:00,
2013-06-06 04:03:00,39.2,39.0,0.00,South,174,26.6,-999.0,100,0.00,,,-99.99,,2013-06-06 12:03:00,
2013-06-06 04:08:00,38.8,38.7,0.00,South,180,21.1,-999.0,99,0.00,,,-99.99,,2013-06-06 12:08:00,
2013-06-06 04:14:00,38.5,38.0,0.00,South,178,19.8,-999.0,100,0.00,,,-99.99,,2013-06-06 12:14:00,
2013-06-06 04:19:00,38.6,38.5,0.00,SSE,167,22.9,-999.0,99,0.00,,,-99.99,,2013-06-06 12:19:00,
2013-06-06 04:24:00,38.8,38.8,0.00,South,172,20.7,-999.0,99,0.00,,,-99.99,,2013-06-06 12:24:00,
2013-06-06 04:29:00,38.9,38.9,0.00,South,169,24.4,-999.0,99,0.00,,,-99.99,,2013-06-06 12:29:00,
2013-06-06 04:34:00,39.2,39.1,0.00,South,176,22.6,-999.0,99,0.00,,,-99.99,,2013-06-06 12:34:00,
2013-06-06 04:39:00,39.3,39.2,0.00,SSE,168,19.6,-999.0,99,0.00,,,-99.99,,2013-06-06 12:39:00,
2013-06-06 04:44:00,39.2,39.0,0.00,SSE,163,20.6,-999.0,100,0.00,,,-99.99,,2013-06-06 12:44:00,
2013-06-06 04:49:00,39.3,39.2,0.00,South,176,21.4,-999.0,99,0.00,,,-99.99,,2013-06-06 12:49:00,
2013-06-06 04:54:00,39.1,39.0,0.00,South,173,23.8,-999.0,99,0.00,,,-99.99,,2013-06-06 12:54:00,
2013-06-06 04:59:00,39.3,39.3,0.00,South,174,20.3,-999.0,99,0.00,,,-99.99,,2013-06-06 12:59:00,
2013-06-06 05:04:00,39.5,39.4,0.00,South,176,20.3,-999.0,99,0.00,,,-99.99,,2013-06-06 13:04:00,
2013-06-06 05:09:00,39.6,39.5,0.00,SSE,167,24.9,-999.0,99,0.00,,,-99.99,,2013-06-06 13:09:00,
2013-06-06 05:14:00,39.6,39.5,0.00,South,174,19.3,-999.0,99,0.00,,,-99.99,,2013-06-06 13:14:00,
2013-06-06 05:19:00,39.5,39.0,0.00,South,181,26.4,-999.0,100,0.00,,,-99.99,,2013-06-06 13:19:00,
2013-06-06 05:24:00,39.3,39.3,0.00,SSE,167,19.4,-999.0,99,0.01,,,-99.99,,2013-06-06 13:24:00,
2013-06-06 05:29:00,39.5,39.5,0.00,South,185,28.4,-999.0,99,0.01,,,-99.99,,2013-06-06 13:29:00,
2013-06-06 05:34:00,39.2,39.0,0.00,South,179,24.2,-999.0,100,0.01,,,-99.99,,2013-06-06 13:34:00,
2013-06-06 05:39:00,39.0,38.0,0.00,SSE,161,21.8,-999.0,100,0.01,,,-99.99,,2013-06-06 13:39:00,
2013-06-06 05:44:00,39.2,39.1,0.00,SSE,160,24.2,-999.0,99,0.01,,,-99.99,,2013-06-06 13:44:00,
2013-06-06 05:49:00,38.9,38.0,0.00,SSE,162,21.4,-999.0,100,0.01,,,-99.99,,2013-06-06 13:49:00,
2013-06-06 05:54:00,39.4,39.0,0.00,SSE,160,20.7,-999.0,100,0.01,,,-99.99,,2013-06-06 13:54:00,
2013-06-06 05:59:00,39.4,39.4,0.00,SSE,167,22.4,-999.0,99,0.00,,,-99.99,,2013-06-06 13:59:00,
2013-06-06 06:04:00,39.5,39.0,0.00,South,172,21.1,-999.0,100,0.00,,,-99.99,,2013-06-06 14:04:00,
2013-06-06 06:09:00,39.5,39.0,0.00,South,170,23.6,-999.0,100,0.00,,,-99.99,,2013-06-06 14:09:00,
2013-06-06 06:14:00,39.5,39.0,0.00,SSE,161,24.8,-999.0,100,0.00,,,-99.99,,2013-06-06 14:14:00,
2013-06-06 06:19:00,39.5,39.5,0.00,SSE,164,20.6,-999.0,99,0.00,,,-99.99,,2013-06-06 14:19:00,
2013-06-06 06:24:00,39.5,39.4,0.00,SSE,156,27.6,-999.0,99,0.00,,,-99.99,,2013-06-06 14:24:00,
2013-06-06 06:29:00,39.5,39.0,0.00,South,169,20.9,-999.0,100,0.00,,,-99.99,,2013-06-06 14:29:00,
2013-06-06 06:34:00,39.4,39.4,0.00,SSE,167,23.3,-999.0,99,0.00,,,-99.99,,2013-06-06 14:34:00,
2013-06-06 06:39:00,39.3,39.2,0.00,SSE,156,20.7,-999.0,99,0.00,,,-99.99,,2013-06-06 14:39:00,
2013-06-06 06:44:00,39.2,39.1,0.00,SSE,164,26.9,-999.0,99,0.00,,,-99.99,,2013-06-06 14:44:00,
2013-06-06 06:49:00,39.0,38.0,0.00,South,169,24.8,-999.0,100,0.00,,,-99.99,,2013-06-06 14:49:00,
2013-06-06 06:54:00,38.7,38.7,0.00,South,180,20.3,-999.0,99,0.00,,,-99.99,,2013-06-06 14:54:00,
2013-06-06 07:00:00,38.7,38.0,0.00,South,179,26.4,-999.0,100,0.00,,,-99.99,,2013-06-06 15:00:00,
2013-06-06 07:05:00,38.7,38.0,0.00,SSE,167,20.1,-999.0,100,0.00,,,-99.99,,2013-06-06 15:05:00,
2013-06-06 07:10:00,38.7,38.0,0.00,SSE,160,26.1,-999.0,100,0.00,,,-99.99,,2013-06-06 15:10:00,
2013-06-06 07:15:00,38.6,38.6,0.00,SSE,158,25.6,-999.0,99,0.01,,,-99.99,,2013-06-06 15:15:00,
2013-06-06 07:21:00,38.7,38.0,0.00,SSE,165,31.7,-999.0,100,0.01,,,-99.99,,2013-06-06 15:21:00,
2013-06-06 07:27:00,38.7,38.0,0.00,SSE,162,29.1,-999.0,100,0.01,,,-99.99,,2013-06-06 15:27:00,
2013-06-06 07:32:00,38.8,38.8,0.00,South,169,26.1,-999.0,99,0.01,,,-99.99,,2013-06-06 15:32:00,
2013-06-06 07:37:00,38.7,38.0,0.00,SSE,160,36.6,-999.0,100,0.01,,,-99.99,,2013-06-06 15:37:00,
2013-06-06 07:42:00,38.9,38.8,0.00,SSE,153,26.3,-999.0,99,0.02,,,-99.99,,2013-06-06 15:42:00,
2013-06-06 07:47:00,38.9,38.0,0.00,SSE,163,26.8,-999.0,100,0.03,,,-99.99,,2013-06-06 15:47:00,
2013-06-06 07:52:00,39.0,39.0,0.00,SSE,166,23.4,-999.0,100,0.03,,,-99.99,,2013-06-06 15:52:00,
2013-06-06 07:58:00,39.1,39.0,0.00,SSE,167,26.0,-999.0,100,0.03,,,-99.99,,2013-06-06 15:58:00,
2013-06-06 08:03:00,39.2,39.0,0.00,South,173,29.6,-999.0,100,0.00,,,-99.99,,2013-06-06 16:03:00,
2013-06-06 08:08:00,39.4,39.0,0.00,SSE,166,22.8,-999.0,100,0.00,,,-99.99,,2013-06-06 16:08:00,
2013-06-06 08:13:00,39.3,39.0,0.00,South,179,26.4,-999.0,100,0.00,,,-99.99,,2013-06-06 16:13:00,
2013-06-06 08:18:00,39.3,39.0,0.00,South,179,23.9,-999.0,100,0.00,,,-99.99,,2013-06-06 16:18:00,
2013-06-06 08:23:00,39.4,39.0,0.00,SSE,162,25.7,-999.0,100,0.00,,,-99.99,,2013-06-06 16:23:00,
2013-06-06 08:28:00,39.2,39.1,0.00,South,169,30.1,-999.0,99,0.00,,,-99.99,,2013-06-06 16:28:00,
2013-06-06 08:33:00,39.0,39.0,0.00,SSE,165,20.3,-999.0,100,0.00,,,-99.99,,2013-06-06 16:33:00,
2013-06-06 08:38:00,39.0,38.9,0.00,South,174,22.9,-999.0,99,0.00,,,-99.99,,2013-06-06 16:38:00,
2013-06-06 08:43:00,39.1,39.0,0.00,SSE,159,23.3,-999.0,100,0.00,,,-99.99,,2013-06-06 16:43:00,
2013-06-06 08:48:00,39.2,39.0,0.00,SSE,154,28.9,-999.0,100,0.00,,,-99.99,,2013-06-06 16:48:00,
2013-06-06 08:53:00,39.3,39.0,0.00,SSE,160,28.3,-999.0,100,0.00,,,-99.99,,2013-06-06 16:53:00,
2013-06-06 08:58:00,39.4,39.0,0.00,South,187,29.5,-999.0,100,0.00,,,-99.99,,2013-06-06 16:58:00,
2013-06-06 09:03:00,39.4,39.0,0.00,SSE,149,29.5,-999.0,100,0.00,,,-99.99,,2013-06-06 17:03:00,
2013-06-06 09:08:00,39.3,39.0,0.00,SSE,164,27.5,-999.0,100,0.00,,,-99.99,,2013-06-06 17:08:00,
2013-06-06 09:13:00,39.0,39.0,0.00,SSE,152,24.3,-999.0,100,0.00,,,-99.99,,2013-06-06 17:13:00,
2013-06-06 09:18:00,39.1,39.0,0.00,SE,144,29.7,-999.0,100,0.00,,,-99.99,,2013-06-06 17:18:00,
2013-06-06 09:23:00,39.0,38.0,0.00,SSE,154,25.5,-999.0,100,0.00,,,-99.99,,2013-06-06 17:23:00,
2013-06-06 09:28:00,39.0,39.0,0.00,SSE,154,25.7,-999.0,100,0.00,,,-99.99,,2013-06-06 17:28:00,
2013-06-06 09:33:00,39.3,39.0,0.00,SSE,163,23.0,-999.0,100,0.02,,,-99.99,,2013-06-06 17:33:00,
2013-06-06 09:38:00,39.5,39.0,0.00,SSE,166,27.9,-999.0,100,0.02,,,-99.99,,2013-06-06 17:38:00,
2013-06-06 09:43:00,39.5,39.0,0.00,SSE,165,32.2,-999.0,100,0.02,,,-99.99,,2013-06-06 17:43:00,
2013-06-06 09:48:00,39.5,39.0,0.00,SSE,160,27.6,-999.0,100,0.02,,,-99.99,,2013-06-06 17:48:00,
2013-06-06 09:53:00,39.6,39.0,0.00,South,174,27.9,-999.0,100,0.02,,,-99.99,,2013-06-06 17:53:00,
2013-06-06 09:58:00,39.6,39.0,0.00,SSE,168,33.9,-999.0,100,0.02,,,-99.99,,2013-06-06 17:58:00,
2013-06-06 10:03:00,39.6,39.0,0.00,SSE,167,31.0,-999.0,100,0.00,,,-99.99,,2013-06-06 18:03:00,
2013-06-06 10:08:00,39.6,39.0,0.00,SSE,168,30.4,-999.0,100,0.00,,,-99.99,,2013-06-06 18:08:00,
2013-06-06 10:13:00,39.4,39.0,0.00,SSE,157,26.8,-999.0,100,0.00,,,-99.99,,2013-06-06 18:13:00,
2013-06-06 10:18:00,39.4,39.0,0.00,SSE,166,20.3,-999.0,100,0.00,,,-99.99,,2013-06-06 18:18:00,
2013-06-06 10:23:00,39.4,39.0,0.00,SSE,162,29.5,-999.0,100,0.00,,,-99.99,,2013-06-06 18:23:00,
2013-06-06 10:28:00,39.3,39.0,0.00,South,169,28.0,-999.0,100,0.00,,,-99.99,,2013-06-06 18:28:00,
2013-06-06 10:33:00,39.3,39.0,0.00,South,178,31.1,-999.0,100,0.00,,,-99.99,,2013-06-06 18:33:00,
2013-06-06 10:38:00,39.4,39.0,0.00,SSE,160,26.0,-999.0,100,0.00,,,-99.99,,2013-06-06 18:38:00,
2013-06-06 10:43:00,39.5,39.0,0.00,SSE,163,35.5,-999.0,100,0.00,,,-99.99,,2013-06-06 18:43:00,
2013-06-06 10:48:00,39.3,39.0,0.00,South,172,28.2,-999.0,100,0.00,,,-99.99,,2013-06-06 18:48:00,
2013-06-06 10:53:00,39.3,39.0,0.00,SSE,161,28.5,-999.0,100,0.00,,,-99.99,,2013-06-06 18:53:00,
2013-06-06 10:58:00,39.4,39.0,0.00,SSE,159,27.4,-999.0,100,0.00,,,-99.99,,2013-06-06 18:58:00,
2013-06-06 11:03:00,39.3,39.0,0.00,South,176,30.6,-999.0,100,0.00,,,-99.99,,2013-06-06 19:03:00,
2013-06-06 11:08:00,39.3,39.0,0.00,SSE,162,31.5,-999.0,100,0.00,,,-99.99,,2013-06-06 19:08:00,
2013-06-06 11:13:00,39.4,39.0,0.00,SSE,166,30.8,-999.0,100,0.00,,,-99.99,,2013-06-06 19:13:00,
2013-06-06 11:18:00,39.5,39.0,0.00,South,169,37.8,-999.0,100,0.00,,,-99.99,,2013-06-06 19:18:00,
2013-06-06 11:23:00,39.6,39.0,0.00,SSE,162,29.3,-999.0,100,0.00,,,-99.99,,2013-06-06 19:23:00,
2013-06-06 11:28:00,39.5,39.0,0.00,South,172,27.3,-999.0,100,0.00,,,-99.99,,2013-06-06 19:28:00,
2013-06-06 11:33:00,39.4,39.0,0.00,South,171,30.5,-999.0,100,0.00,,,-99.99,,2013-06-06 19:33:00,
2013-06-06 11:36:00,39.5,39.0,0.00,South,170,26.0,-999.0,100,0.00,,,-99.99,,2013-06-06 19:36:00,
2013-06-06 11:41:00,39.6,39.0,0.00,SSE,159,33.7,-999.0,100,0.00,,,-99.99,,2013-06-06 19:41:00,
2013-06-06 11:46:00,39.8,39.0,0.00,SSE,147,26.4,-999.0,100,0.00,,,-99.99,,2013-06-06 19:46:00,
2013-06-06 11:52:00,39.8,39.0,0.00,SSE,163,29.8,-999.0,100,0.00,,,-99.99,,2013-06-06 19:52:00,
2013-06-06 11:57:00,39.8,39.0,0.00,SSE,161,26.4,-999.0,100,0.00,,,-99.99,,2013-06-06 19:57:00,
2013-06-06 12:03:00,39.7,39.0,0.00,South,180,27.7,-999.0,100,0.00,,,-99.99,,2013-06-06 20:03:00,
2013-06-06 12:09:00,39.8,39.0,0.00,SSE,167,30.3,-999.0,100,0.00,,,-99.99,,2013-06-06 20:09:00,
2013-06-06 12:14:00,39.6,39.0,0.00,South,175,24.8,-999.0,100,0.00,,,-99.99,,2013-06-06 20:14:00,
2013-06-06 12:19:00,39.8,39.0,0.00,SSE,154,24.7,-999.0,100,0.00,,,-99.99,,2013-06-06 20:19:00,
2013-06-06 12:24:00,39.6,39.0,0.00,SSE,166,29.2,-999.0,100,0.00,,,-99.99,,2013-06-06 20:24:00,
2013-06-06 12:29:00,39.6,39.0,0.00,South,178,33.9,-999.0,100,0.00,,,-99.99,,2013-06-06 20:29:00,
2013-06-06 12:34:00,39.7,39.0,0.00,SSE,161,26.4,-999.0,100,0.00,,,-99.99,,2013-06-06 20:34:00,
2013-06-06 12:39:00,39.8,39.0,0.00,SSE,156,28.4,-999.0,100,0.00,,,-99.99,,2013-06-06 20:39:00,
2013-06-06 12:44:00,39.7,39.0,0.00,South,171,32.6,-999.0,100,0.00,,,-99.99,,2013-06-06 20:44:00,
2013-06-06 12:49:00,39.8,39.0,0.00,SSE,160,34.1,-999.0,100,0.00,,,-99.99,,2013-06-06 20:49:00,
2013-06-06 12:54:00,39.8,39.0,0.00,SSE,156,31.9,-999.0,100,0.00,,,-99.99,,2013-06-06 20:54:00,
2013-06-06 12:59:00,39.9,39.0,0.00,South,174,30.2,-999.0,100,0.00,,,-99.99,,2013-06-06 20:59:00,
2013-06-06 13:04:00,39.8,39.0,0.00,South,174,28.9,-999.0,100,0.00,,,-99.99,,2013-06-06 21:04:00,
2013-06-06 13:09:00,39.9,39.0,0.00,SSE,167,31.0,-999.0,100,0.00,,,-99.99,,2013-06-06 21:09:00,
2013-06-06 13:14:00,39.9,39.0,0.00,SSE,161,27.3,-999.0,100,0.00,,,-99.99,,2013-06-06 21:14:00,
2013-06-06 13:19:00,39.9,39.0,0.00,SSE,162,27.6,-999.0,100,0.00,,,-99.99,,2013-06-06 21:19:00,
2013-06-06 13:24:00,39.8,39.0,0.00,South,183,28.3,-999.0,100,0.00,,,-99.99,,2013-06-06 21:24:00,
2013-06-06 13:29:00,39.9,39.0,0.00,SSE,167,32.0,-999.0,100,0.00,,,-99.99,,2013-06-06 21:29:00,
2013-06-06 13:34:00,39.8,39.0,0.00,SSE,156,26.4,-999.0,100,0.00,,,-99.99,,2013-06-06 21:34:00,
2013-06-06 13:39:00,39.8,39.0,0.00,South,171,30.4,-999.0,100,0.00,,,-99.99,,2013-06-06 21:39:00,
2013-06-06 13:44:00,39.7,39.0,0.00,SSE,167,30.0,-999.0,100,0.00,,,-99.99,,2013-06-06 21:44:00,
2013-06-06 13:49:00,39.7,39.0,0.00,SSE,167,36.3,-999.0,100,0.00,,,-99.99,,2013-06-06 21:49:00,
2013-06-06 13:55:00,39.7,39.0,0.00,SSE,163,26.5,-999.0,100,0.00,,,-99.99,,2013-06-06 21:55:00,
2013-06-06 14:00:00,39.9,39.0,0.00,South,169,24.7,-999.0,100,0.00,,,-99.99,,2013-06-06 22:00:00,
2013-06-06 14:05:00,39.8,39.0,0.00,SSE,160,34.1,-999.0,100,0.00,,,-99.99,,2013-06-06 22:05:00,
2013-06-06 14:10:00,39.8,39.0,0.00,SSE,164,27.3,-999.0,100,0.00,,,-99.99,,2013-06-06 22:10:00,
2013-06-06 14:15:00,40.0,40.0,0.00,South,173,31.5,-999.0,100,0.00,,,-99.99,,2013-06-06 22:15:00,
2013-06-06 14:20:00,40.0,40.0,0.00,SSE,160,32.1,-999.0,100,0.00,,,-99.99,,2013-06-06 22:20:00,
2013-06-06 14:25:00,40.0,40.0,0.00,South,174,29.3,-999.0,100,0.00,,,-99.99,,2013-06-06 22:25:00,
2013-06-06 14:30:00,40.0,40.0,0.00,SSE,162,24.9,-999.0,100,0.00,,,-99.99,,2013-06-06 22:30:00,
2013-06-06 14:36:00,39.9,39.0,0.00,SSE,150,22.3,-999.0,100,0.00,,,-99.99,,2013-06-06 22:36:00,
2013-06-06 14:41:00,40.1,40.0,0.00,SSE,168,24.5,-999.0,100,0.00,,,-99.99,,2013-06-06 22:41:00,
2013-06-06 14:46:00,39.9,39.0,0.00,South,182,34.2,-999.0,100,0.00,,,-99.99,,2013-06-06 22:46:00,
2013-06-06 14:51:00,39.8,39.0,0.00,SSE,163,29.8,-999.0,100,0.01,,,-99.99,,2013-06-06 22:51:00,
2013-06-06 14:56:00,39.7,39.0,0.00,SSE,158,31.8,-999.0,100,0.01,,,-99.99,,2013-06-06 22:56:00,
2013-06-06 15:01:00,39.7,39.0,0.00,SSE,162,33.0,-999.0,100,0.00,,,-99.99,,2013-06-06 23:01:00,
2013-06-06 15:07:00,39.7,39.0,0.00,SSE,147,24.7,-999.0,100,0.00,,,-99.99,,2013-06-06 23:07:00,
2013-06-06 15:12:00,39.6,39.0,0.00,SSE,157,29.3,-999.0,100,0.00,,,-99.99,,2013-06-06 23:12:00,
2013-06-06 15:17:00,39.6,39.0,0.00,SSE,158,27.4,-999.0,100,0.00,,,-99.99,,2013-06-06 23:17:00,
2013-06-06 15:22:00,39.6,39.0,0.00,SSE,163,21.3,-999.0,100,0.00,,,-99.99,,2013-06-06 23:22:00,
2013-06-06 15:27:00,39.6,39.0,0.00,SSE,164,28.4,-999.0,100,0.00,,,-99.99,,2013-06-06 23:27:00,
2013-06-06 15:32:00,39.6,39.0,0.00,SSE,155,28.9,-999.0,100,0.00,,,-99.99,,2013-06-06 23:32:00,
2013-06-06 15:37:00,39.5,39.0,0.00,SSE,161,30.7,-999.0,100,0.00,,,-99.99,,2013-06-06 23:37:00,
2013-06-06 15:43:00,39.7,39.0,0.00,South,173,24.2,-999.0,100,0.00,,,-99.99,,2013-06-06 23:43:00,
2013-06-06 15:48:00,39.6,39.0,0.00,SSE,160,21.5,-999.0,100,0.00,,,-99.99,,2013-06-06 23:48:00,
2013-06-06 15:53:00,39.7,39.0,0.00,SSE,164,33.2,-999.0,100,0.00,,,-99.99,,2013-06-06 23:53:00,
2013-06-06 15:58:00,39.7,39.0,0.00,SSE,164,31.5,-999.0,100,0.00,,,-99.99,,2013-06-06 23:58:00,
2013-06-06 16:03:00,39.8,39.0,0.00,South,170,28.1,-999.0,100,0.00,,,-99.99,,2013-06-07 00:03:00,
2013-06-06 16:08:00,39.8,39.0,0.00,SSE,164,32.3,-999.0,100,0.00,,,-99.99,,2013-06-07 00:08:00,
2013-06-06 16:13:00,39.8,39.0,0.00,SSE,149,22.8,-999.0,100,0.00,,,-99.99,,2013-06-07 00:13:00,
2013-06-06 16:18:00,39.8,39.0,0.00,SSE,166,26.7,-999.0,100,0.00,,,-99.99,,2013-06-07 00:18:00,
2013-06-06 16:23:00,39.8,39.0,0.00,SSE,166,34.6,-999.0,100,0.00,,,-99.99,,2013-06-07 00:23:00,
2013-06-06 16:28:00,39.8,39.0,0.00,SSE,159,29.1,-999.0,100,0.00,,,-99.99,,2013-06-07 00:28:00,
2013-06-06 16:33:00,39.7,39.0,0.00,South,178,27.0,-999.0,100,0.00,,,-99.99,,2013-06-07 00:33:00,
2013-06-06 16:38:00,39.8,39.0,0.00,SSE,148,28.7,-999.0,100,0.00,,,-99.99,,2013-06-07 00:38:00,
2013-06-06 16:43:00,39.7,39.0,0.00,SSE,158,31.6,-999.0,100,0.00,,,-99.99,,2013-06-07 00:43:00,
2013-06-06 16:48:00,39.8,39.0,0.00,SSE,165,27.0,-999.0,100,0.00,,,-99.99,,2013-06-07 00:48:00,
2013-06-06 16:53:00,39.7,39.0,0.00,SSE,157,32.1,-999.0,100,0.00,,,-99.99,,2013-06-07 00:53:00,
2013-06-06 16:58:00,39.7,39.0,0.00,SSE,153,29.0,-999.0,100,0.00,,,-99.99,,2013-06-07 00:58:00,
2013-06-06 17:03:00,39.7,39.0,0.00,SSE,158,24.2,-999.0,100,0.00,,,-99.99,,2013-06-07 01:03:00,
2013-06-06 17:08:00,39.7,39.0,0.00,SSE,159,27.0,-999.0,100,0.00,,,-99.99,,2013-06-07 01:08:00,
2013-06-06 17:13:00,39.8,39.0,0.00,SSE,153,27.9,-999.0,100,0.00,,,-99.99,,2013-06-07 01:13:00,
2013-06-06 17:18:00,39.7,39.0,0.00,SSE,158,25.5,-999.0,100,0.00,,,-99.99,,2013-06-07 01:18:00,
2013-06-06 17:23:00,39.8,39.0,0.00,SSE,154,22.5,-999.0,100,0.00,,,-99.99,,2013-06-07 01:23:00,
2013-06-06 17:28:00,39.8,39.0,0.00,SSE,155,30.5,-999.0,100,0.00,,,-99.99,,2013-06-07 01:28:00,
2013-06-06 17:33:00,39.8,39.0,0.00,South,173,28.7,-999.0,100,0.00,,,-99.99,,2013-06-07 01:33:00,
2013-06-06 17:38:00,39.7,39.0,0.00,SSE,156,23.3,-999.0,100,0.00,,,-99.99,,2013-06-07 01:38:00,
2013-06-06 17:43:00,39.8,39.0,0.00,SSE,157,27.3,-999.0,100,0.00,,,-99.99,,2013-06-07 01:43:00,
2013-06-06 17:48:00,39.8,39.0,0.00,SSE,151,26.0,-999.0,100,0.00,,,-99.99,,2013-06-07 01:48:00,
2013-06-06 17:53:00,39.8,39.0,0.00,SSE,166,22.8,-999.0,100,0.00,,,-99.99,,2013-06-07 01:53:00,
2013-06-06 17:58:00,39.9,39.0,0.00,SSE,155,29.6,-999.0,100,0.00,,,-99.99,,2013-06-07 01:58:00,
2013-06-06 18:03:00,40.1,40.0,0.00,SSE,152,29.1,-999.0,99,0.00,,,-99.99,,2013-06-07 02:03:00,
2013-06-06 18:08:00,40.0,39.9,0.00,SSE,157,24.7,-999.0,99,0.00,,,-99.99,,2013-06-07 02:08:00,
2013-06-06 18:13:00,40.0,39.8,0.00,SSE,161,22.3,-999.0,99,0.00,,,-99.99,,2013-06-07 02:13:00,
2013-06-06 18:18:00,40.1,39.3,0.00,SSE,150,24.7,-999.0,97,0.00,,,-99.99,,2013-06-07 02:18:00,
2013-06-06 18:23:00,40.1,39.2,0.00,SSE,160,30.7,-999.0,96,0.00,,,-99.99,,2013-06-07 02:23:00,
2013-06-06 18:28:00,40.2,39.2,0.00,SSE,155,31.7,-999.0,96,0.00,,,-99.99,,2013-06-07 02:28:00,
2013-06-06 18:33:00,40.1,39.1,0.00,SSE,166,25.4,-999.0,96,0.00,,,-99.99,,2013-06-07 02:33:00,
2013-06-06 18:38:00,40.3,39.2,0.00,SSE,150,21.4,-999.0,96,0.00,,,-99.99,,2013-06-07 02:38:00,
2013-06-06 18:43:00,40.1,39.1,0.00,SSE,149,25.7,-999.0,96,0.00,,,-99.99,,2013-06-07 02:43:00,
2013-06-06 18:48:00,40.2,39.1,0.00,SSE,156,24.0,-999.0,96,0.00,,,-99.99,,2013-06-07 02:48:00,
2013-06-06 18:53:00,40.4,39.4,0.00,SSE,159,23.7,-999.0,96,0.00,,,-99.99,,2013-06-07 02:53:00,
2013-06-06 18:58:00,40.3,39.2,0.00,SSE,161,28.3,-999.0,96,0.00,,,-99.99,,2013-06-07 02:58:00,
2013-06-06 19:03:00,40.4,39.3,0.00,SSE,156,27.5,-999.0,95,0.00,,,-99.99,,2013-06-07 03:03:00,
2013-06-06 19:08:00,40.3,39.0,0.00,SSE,151,24.9,-999.0,95,0.00,,,-99.99,,2013-06-07 03:08:00,
2013-06-06 19:13:00,40.4,39.0,0.00,SSE,156,25.9,-999.0,94,0.00,,,-99.99,,2013-06-07 03:13:00,
2013-06-06 19:18:00,40.6,39.0,0.00,SSE,152,25.6,-999.0,94,0.00,,,-99.99,,2013-06-07 03:18:00,
2013-06-06 19:23:00,40.4,38.8,0.00,SE,142,27.3,-999.0,93,0.00,,,-99.99,,2013-06-07 03:23:00,
2013-06-06 19:28:00,40.4,38.9,0.00,SSE,157,22.7,-999.0,94,0.00,,,-99.99,,2013-06-07 03:28:00,
2013-06-06 19:33:00,40.1,38.8,0.00,SSE,153,23.2,-999.0,95,0.00,,,-99.99,,2013-06-07 03:33:00,
2013-06-06 19:38:00,39.9,38.8,0.00,SSE,156,23.1,-999.0,95,0.00,,,-99.99,,2013-06-07 03:38:00,
2013-06-06 19:43:00,39.9,38.9,0.00,SSE,153,24.9,-999.0,96,0.00,,,-99.99,,2013-06-07 03:43:00,
2013-06-06 19:48:00,40.1,39.0,0.00,SSE,157,24.7,-999.0,96,0.00,,,-99.99,,2013-06-07 03:48:00,
2013-06-06 19:53:00,39.8,38.9,0.00,SSE,148,24.2,-999.0,96,0.00,,,-99.99,,2013-06-07 03:53:00,
2013-06-06 19:58:00,39.9,39.0,0.00,SSE,154,22.5,-999.0,96,0.00,,,-99.99,,2013-06-07 03:58:00,
2013-06-06 20:01:00,39.9,38.9,0.00,SSE,160,26.8,-999.0,96,0.00,,,-99.99,,2013-06-07 04:01:00,
2013-06-06 20:02:00,39.9,38.8,0.00,SSE,162,22.3,-999.0,96,0.00,,,-99.99,,2013-06-07 04:02:00,
2013-06-06 20:03:00,39.9,38.8,0.00,SSE,155,22.0,-999.0,95,0.00,,,-99.99,,2013-06-07 04:03:00,
2013-06-06 20:05:00,39.9,38.8,0.00,SSE,153,21.2,-999.0,96,0.00,,,-99.99,,2013-06-07 04:05:00,
2013-06-06 20:10:00,40.0,38.9,0.00,SSE,152,20.0,-999.0,95,0.00,,,-99.99,,2013-06-07 04:10:00,
2013-06-06 20:12:00,40.2,39.0,0.00,SSE,149,19.1,-999.0,95,0.00,,,-99.99,,2013-06-07 04:12:00,
2013-06-06 20:17:00,40.2,38.8,0.00,SE,146,22.2,-999.0,94,0.00,,,-99.99,,2013-06-07 04:17:00,
2013-06-06 20:24:00,40.3,38.9,0.00,SSE,149,17.5,-999.0,94,0.00,,,-99.99,,2013-06-07 04:24:00,
2013-06-06 20:29:00,40.3,38.7,0.00,SSE,159,17.3,-999.0,94,0.00,,,-99.99,,2013-06-07 04:29:00,
2013-06-06 20:34:00,40.3,38.6,0.00,SSE,155,21.7,-999.0,93,0.00,,,-99.99,,2013-06-07 04:34:00,
2013-06-06 20:39:00,40.5,38.9,0.00,SSE,160,20.6,-999.0,94,0.00,,,-99.99,,2013-06-07 04:39:00,
2013-06-06 20:44:00,40.3,38.6,0.00,SSE,152,15.7,-999.0,93,0.00,,,-99.99,,2013-06-07 04:44:00,
2013-06-06 20:49:00,40.3,38.5,0.00,SSE,155,19.2,-999.0,93,0.00,,,-99.99,,2013-06-07 04:49:00,
2013-06-06 20:54:00,40.4,38.6,0.00,SSE,150,19.5,-999.0,93,0.00,,,-99.99,,2013-06-07 04:54:00,
2013-06-06 20:59:00,40.4,38.6,0.00,SSE,162,17.4,-999.0,93,0.00,,,-99.99,,2013-06-07 04:59:00,
2013-06-06 21:04:00,40.4,38.8,0.00,SSE,147,16.4,-999.0,93,0.00,,,-99.99,,2013-06-07 05:04:00,
2013-06-06 21:09:00,40.3,38.6,0.00,SSE,148,17.1,-999.0,94,0.00,,,-99.99,,2013-06-07 05:09:00,
2013-06-06 21:14:00,40.3,38.6,0.00,SE,145,17.3,-999.0,93,0.00,,,-99.99,,2013-06-07 05:14:00,
2013-06-06 21:19:00,40.3,38.7,0.00,SE,146,15.1,-999.0,94,0.00,,,-99.99,,2013-06-07 05:19:00,
2013-06-06 21:24:00,40.4,38.5,0.00,SE,138,17.2,-999.0,93,0.00,,,-99.99,,2013-06-07 05:24:00,
2013-06-06 21:29:00,40.6,38.6,0.00,SSE,153,18.0,-999.0,92,0.00,,,-99.99,,2013-06-07 05:29:00,
2013-06-06 21:34:00,40.6,38.5,0.00,SSE,155,14.0,-999.0,92,0.00,,,-99.99,,2013-06-07 05:34:00,
2013-06-06 21:39:00,40.7,38.5,0.00,SSE,148,18.6,-999.0,91,0.00,,,-99.99,,2013-06-07 05:39:00,
2013-06-06 21:44:00,40.7,38.2,0.00,SE,146,14.1,-999.0,90,0.00,,,-99.99,,2013-06-07 05:44:00,
2013-06-06 21:49:00,40.8,38.2,0.00,SE,139,14.9,-999.0,90,0.00,,,-99.99,,2013-06-07 05:49:00,
2013-06-06 21:54:00,40.9,38.3,0.00,SSE,151,18.1,-999.0,90,0.00,,,-99.99,,2013-06-07 05:54:00,
2013-06-06 21:59:00,40.9,38.2,0.00,SE,141,14.4,-999.0,90,0.00,,,-99.99,,2013-06-07 05:59:00,
2013-06-06 22:04:00,41.0,38.2,0.00,SE,137,13.0,-999.0,89,0.00,,,-99.99,,2013-06-07 06:04:00,
2013-06-06 22:09:00,41.0,37.7,0.00,SE,140,22.1,-999.0,87,0.00,,,-99.99,,2013-06-07 06:09:00,
2013-06-06 22:14:00,41.3,37.6,0.00,SE,141,17.0,-999.0,86,0.00,,,-99.99,,2013-06-07 06:14:00,
2013-06-06 22:20:00,41.0,37.3,0.00,SE,144,15.6,-999.0,86,0.00,,,-99.99,,2013-06-07 06:20:00,
2013-06-06 22:25:00,41.2,37.3,0.00,SE,136,16.7,-999.0,85,0.00,,,-99.99,,2013-06-07 06:25:00,
2013-06-06 22:30:00,41.2,37.4,0.00,SE,142,16.8,-999.0,86,0.00,,,-99.99,,2013-06-07 06:30:00,
2013-06-06 22:35:00,41.3,37.2,0.00,SE,139,16.8,-999.0,85,0.00,,,-99.99,,2013-06-07 06:35:00,
2013-06-06 22:40:00,41.4,37.2,0.00,SE,129,16.5,-999.0,85,0.00,,,-99.99,,2013-06-07 06:40:00,
2013-06-06 22:45:00,41.6,37.1,0.00,SSE,149,16.1,-999.0,84,0.00,,,-99.99,,2013-06-07 06:45:00,
2013-06-06 22:50:00,41.7,36.9,0.00,SE,136,19.1,-999.0,83,0.00,,,-99.99,,2013-06-07 06:50:00,
2013-06-06 22:55:00,41.8,37.0,0.00,SE,138,9.9,-999.0,82,0.00,,,-99.99,,2013-06-07 06:55:00,
2013-06-06 23:00:00,42.3,36.5,0.00,SSE,153,15.3,-999.0,80,0.00,,,-99.99,,2013-06-07 07:00:00,
2013-06-06 23:05:00,42.1,36.6,0.00,SSE,149,18.6,-999.0,80,0.00,,,-99.99,,2013-06-07 07:05:00,
2013-06-06 23:10:00,42.5,36.4,0.00,ESE,119,15.4,-999.0,78,0.00,,,-99.99,,2013-06-07 07:10:00,
2013-06-06 23:15:00,42.4,36.6,0.00,SE,138,12.7,-999.0,80,0.00,,,-99.99,,2013-06-07 07:15:00,
2013-06-06 23:20:00,42.2,36.3,0.00,SE,135,12.9,-999.0,79,0.00,,,-99.99,,2013-06-07 07:20:00,
2013-06-06 23:25:00,42.3,36.6,0.00,SE,124,14.0,-999.0,80,0.00,,,-99.99,,2013-06-07 07:25:00,
2013-06-06 23:30:00,42.4,36.5,0.00,SE,132,15.6,-999.0,79,0.00,,,-99.99,,2013-06-07 07:30:00,
2013-06-06 23:35:00,42.5,36.7,0.00,SE,130,15.0,-999.0,79,0.00,,,-99.99,,2013-06-07 07:35:00,
2013-06-06 23:40:00,42.1,36.6,0.00,SE,127,14.2,-999.0,80,0.00,,,-99.99,,2013-06-07 07:40:00,
2013-06-06 23:45:00,42.3,36.4,0.00,SE,133,14.6,-999.0,79,0.00,,,-99.99,,2013-06-07 07:45:00,
2013-06-06 23:50:00,42.4,36.4,0.00,SE,137,13.3,-999.0,79,0.00,,,-99.99,,2013-06-07 07:50:00,
2013-06-06 23:55:00,42.6,36.6,0.00,SE,136,14.2,-999.0,79,0.00,,,-99.99,,2013-06-07 07:55:00,